Location: Augirein
(42.9320°N, 0.9181°E)
Time: 20:10:57
(UTC+00:00)

Cosmos 1842 Rocket - Pass Details

Date: 20 June 2021
Orbit: 606 x 633 km, 82.5° (Epoch: 31 July)

Event Time Altitude Azimuth Distance (km) Brightness Sun altitude
Rises 01:25:51 0° 349° (NNW) 2,875 7.9 -20.6°
Reaches altitude 10° 01:28:04 10° 347° (NNW) 1,968 6.9 -20.5°
Maximum altitude 01:32:24 68° 264° (W) 660 3.5 -20.2°
Enters shadow 01:33:16 52° 206° (SSW) 760 3.6 -20.1°
